Fort Nelson Airport

Airport
ICAO code: 
CYYE
Summary
ICAO Region: 
NAM
Territory: 
Location: 
Fort Nelson, BC,
Coordinates: 
Aerial View: 
58° 50' 17.76" N, 122° 35' 46.55" W
Metar
Observation
CYYE 252000Z 03006KT 360V060 20SM BKN025 BKN061 12/07 A2977 RMK SC5SC2 VIRGA SW SLP096 DENSITY ALT 1400FT
Station
Fort Nelson, B. C.
Date/Time
2022-05-25 20:00:00
Wind direction
30°
Wind speed
06 kts
Lowest cloud amount
broken clouds
Temperature
12°C
Dew point
7°C
Humidity
71%
Weather condition
n/a

Description

Also known as Northern Rockies Regional Airport, the iarport is located 8 nm east northeast of Fort Nelson, British Columbia, Canada.

Climatology

Subarctic climate (Köppen climate classification Dfc) - long, usually very cold winters, and short, cool to mild summers.

Runways

Designator Length Width Surface Rops
8/26 0 0 UNK Yes/Yes
7/25 1240 23 ASP No/No
3/21 1951 61 ASP Yes/Yes
Airport map: 
Aerial View: 

Accidents and Serious Incidents at or in the vicinity of CYYE

SKYbrary Partners:

Safety knowledge contributed by: